Regional Weather Roundup
Issued by NWS San Angelo, TX

Home | Current Version | Previous Version | Text Only | Print | Product List | Glossary On
Versions: 1 2 3 4 5 6 7 8 9 10 11 12 13 14 15 16 17 18 19 20 21 22 23 24 25 26 27 28 29 30 31 32 33 34 35 36 37 38 39 40 41 42 43 44 45 46 47 48 49 50
000
ASUS44 KSJT 301810
RWRSJT
WEST CENTRAL TEXAS REGIONAL WEATHER ROUNDUP
NATIONAL WEATHER SERVICE SAN ANGELO TX
100 PM CDT SAT AUG 30 2014

NOTE: "FAIR" INDICATES FEW OR NO CLOUDS BELOW 12,000 FEET WITH NO
SIGNIFICANT WEATHER AND/OR OBSTRUCTIONS TO VISIBILITY.

TXZ049-054-064>066-071>073-076>078-098-099-113-114-127-128-139-140-
154-155-168>170-301900
...LOCATIONS ACROSS WEST CENTRAL TEXAS...

CITY           SKY/WX    TMP DP  RH WIND       PRES   REMARKS
SAN ANGELO     SUNNY     93  67  42 VRB6      29.99F
ABILENE        MOSUNNY   93  67  42 NW9       29.99F
DYESS AFB      MOSUNNY   90  69  51 N7        29.98F
JUNCTION       SUNNY     91  66  43 SE8       29.97F
SWEETWATER     MOSUNNY   87  66  49 N5        30.05F
BROWNWOOD      SUNNY     90  68  48 SW5       29.97F
COLEMAN        PTCLDY    89  66  46 CALM      29.98F
SONORA         SUNNY     88  68  51 E6        30.04F
OZONA          FAIR      91  61  35 E7        30.03F
BRADY          SUNNY     90  66  45 CALM      29.98F
$$

TEXAS PANHANDLE/OKLAHOMA PANHANDLE

CITY           SKY/WX    TMP DP  RH WIND       PRES   REMARKS
AMARILLO       SUNNY     89  50  26 SW8G20    30.08F
BORGER         MOSUNNY   91  52  26 VRB6      30.04F
CANADIAN       SUNNY     88  63  43 CALM      30.00F
DALHART        SUNNY     88  56  33 SW15      30.08F
DUMAS          CLEAR     87  53  31 S9G16     30.07F
GUYMON         NOT AVBL
HEREFORD       CLEAR     89  52  28 SW8       30.09F
PAMPA          CLEAR     87  51  28 SW10      30.06F
PERRYTON       MOSUNNY   88  57  34 S8        30.03F
$$

SOUTHERN PANHANDLE/SOUTH PLAINS/ROLLING PLAINS

CITY           SKY/WX    TMP DP  RH WIND       PRES   REMARKS
LUBBOCK        MOSUNNY   87  58  37 VRB6      30.07F
SNYDER         SUNNY     90  55  30 NE9       30.03F
CHILDRESS      SUNNY     87  68  52 W3        30.01F
SEMINOLE       CLEAR     91  51  25 SE7       30.08F
$$

PERMIAN BASIN

CITY           SKY/WX    TMP DP  RH WIND       PRES   REMARKS
MIDLAND        SUNNY     91  60  35 E8        30.04F
ODESSA         SUNNY     89  53  29 W6        30.05F
WINK           SUNNY     95  47  19 VRB6      30.00F
$$

FAR WEST/SOUTHWEST MOUNTAINS/TRANS PECOS

CITY           SKY/WX    TMP DP  RH WIND       PRES   REMARKS
ALPINE         PTCLDY    86  46  24 NW6       30.18F
DRYDEN           N/A     95  66  38 MISG      29.97F
EL PASO        MOSUNNY   88  48  25 S7        30.07F
FORT STOCKTON  MOSUNNY   90  54  29 CALM      30.03F
GUADALUPE PASS SUNNY     87  49  26 E9G18     30.22F
MARFA          MOSUNNY   84  54  34 N7        30.18F
PECOS          CLEAR     91  57  31 E6        30.01F
$$

DALLAS/FORT WORTH METROPLEX

CITY           SKY/WX    TMP DP  RH WIND       PRES   REMARKS
DFW AIRPORT    PTSUNNY   88  73  61 E8        29.95F
FTW MEACHAM    SUNNY     90  70  51 E3        29.94F
DAL-EXECUTIVE  SUNNY     89  70  53 SE6       29.95F
GRAND PRAIRIE  NOT AVBL
ADDISON        PTSUNNY   86  70  58 VRB3      29.97
MESQUITE       MOCLDY    86  70  58 CALM      29.96F
LANCASTER      MOCLDY    85  69  57 CALM      29.97F
$$

NORTH CENTRAL TEXAS

CITY           SKY/WX    TMP DP  RH WIND       PRES   REMARKS
SHRMAN/DENISON PTCLDY    90  69  50 CALM      29.97F
GAINESVILLE    SUNNY     87  72  60 CALM      29.97F
BRIDGEPORT     PTCLDY    89  67  47 CALM      29.97F
DENTON         PTSUNNY   89  70  53 CALM      29.94F
WAXAHACHIE     MOCLDY    87  68  52 E7        29.97F
GRANBURY       CLEAR     92  68  45 NE6       29.96F
$$

WESTERN NORTH TEXAS

CITY           SKY/WX    TMP DP  RH WIND       PRES   REMARKS
WICHITA FALLS  SUNNY     89  71  55 CALM      29.95F
VERNON         CLEAR     89  67  48 CALM      29.97F
BRECKENRIDGE   CLEAR     92  68  45 N5        29.96F HAZE
COMANCHE         N/A     92  67  43 CALM      29.97F
$$

CENTRAL AND SOUTH CENTRAL TEXAS

CITY           SKY/WX    TMP DP  RH WIND       PRES   REMARKS
AUSTIN/BERGSTM PTSUNNY   90  70  51 N6        29.94F
WACO           MOSUNNY   88  70  55 NE7       29.96F
HILLSBORO      PTCLDY    89  68  50 CALM      29.95F
TEMPLE         CLOUDY    91  68  46 SE9       29.95F
KILLEEN-GRAY   MOSUNNY   90  70  51 VRB3      29.96F
FORT HOOD      SUNNY     95  66  38 N5        29.96F
GEORGETOWN     MOSUNNY   90  70  51 N6        29.96F
LAGO VISTA     MOCLDY    91  66  43 CALM      29.97F
SAN MARCOS     PTSUNNY   93  70  46 E6        29.95F
NEW BRAUNFELS  PTSUNNY   93  69  45 CALM      29.93S
RANDOLPH AFB   MOSUNNY   92  68  46 S5        29.94F
SAN ANTONIO    MOSUNNY   92  69  47 VRB3      29.94F
STINSON        MOSUNNY   92  69  47 NE8       29.91F
PLEASANTON     NOT AVBL
LA GRANGE      PTSUNNY   89  74  60 SE5       29.93S
GIDDINGS       CLOUDY    86  71  59 N7        29.99S
$$

EAST TEXAS

CITY           SKY/WX    TMP DP  RH WIND       PRES   REMARKS
PARIS          MOSUNNY   84  66  54 SE3       29.97F
CLARKSVILLE    NOT AVBL
TYLER          MOSUNNY   85  70  60 VRB5      29.96F
LONGVIEW       PTSUNNY   89  71  55 VRB5      29.94F
PALESTINE      MOCLDY    84  69  60 CALM      29.97F
NACOGDOCHES    CLOUDY    82  72  69 S3        29.96S
$$

TEXAS HILL COUNTRY AND EDWARDS PLATEAU

CITY           SKY/WX    TMP DP  RH WIND       PRES   REMARKS
LLANO          PTCLDY    95  66  38 CALM      29.98F
HORSESHOE BAY  FAIR      90  67  46 E6        29.96F
KERRVILLE      MOSUNNY   89  68  49 E7        29.98F
FREDERICKSBRG  MOSUNNY   89  61  38 CALM      29.98F
ROCKSPRINGS    PTCLDY    90  66  45 SE8       30.03F
HONDO          SUNNY     91  68  46 VRB5      29.95F
UVALDE         PTCLDY    92  71  48 E8        29.94F
DEL RIO        SUNNY     93  69  45 SE8       29.91F
$$

SOUTHEAST TEXAS

CITY           SKY/WX    TMP DP  RH WIND       PRES   REMARKS
COLLEGE STN    PTSUNNY   87  71  58 N6        29.96S
CALDWELL       MOCLDY    82  72  69 NW5       29.99F
CROCKETT       PTCLDY    88  75  66 N6        29.97F
BRENHAM        MOSUNNY   87  72  60 CALM      29.95F
HUNTSVILLE     MOSUNNY   88  70  55 VRB3      29.95S
CONROE         PTSUNNY   88  70  55 CALM      29.94F
HOUSTON BUSH   PTSUNNY   88  72  58 W5        29.94F
HOUSTON HOBBY  CLOUDY    85  72  65 W3        29.94S
PERLAND        CLOUDY    85  72  65 CALM      29.96S
WHARTON        MOCLDY    88  73  61 SE8       29.95F
$$

THE UPPER TEXAS COAST

CITY           SKY/WX    TMP DP  RH WIND       PRES   REMARKS
ORANGE         CLOUDY    78  78 100 SE3       29.98S
PORT ARTHUR    CLOUDY    81  77  88 S7        29.96S
GALVESTON      CLOUDY    83  77  82 S5        29.96S
ANGLETON       CLOUDY    82  76  81 SE5       29.96S
BAY CITY       DRIZZLE   83  77  80 SE6       29.95F
$$

TEXAS COASTAL BEND, RIO GRANDE PLAINS DEEP SOUTH TEXAS

CITY           SKY/WX    TMP DP  RH WIND       PRES   REMARKS
VICTORIA       PTSUNNY   89  74  60 S3        29.93F
BEEVILLE       MOCLDY    89  72  58 S5        29.92F
ROCKPORT       CLOUDY    84  71  65 SE7       29.93S
PORT ARANSAS   CLOUDY    80  75  83 CALM      29.93S
PORT LAVACA    CLOUDY    85  74  68 S3        29.93F
CORPUS CHRISTI CLOUDY    81  76  84 SE5       29.92S
KINGSVILLE NAS CLOUDY    82  77  84 SE6       29.92S
COTULLA        MOSUNNY   91  68  46 E5        29.90F
LAREDO         SUNNY     95  69  42 VRB6      29.91F
BROWNSVILLE    CLOUDY    85  76  74 SE10      29.91S
PORT ISABEL    CLOUDY    85  74  69 SE7       29.90S
HEBBRONVILLE   NOT AVBL
MCALLEN        PTSUNNY   88  75  66 SE10      29.90S
WESLACO        NOT AVBL
FALFURRIAS     MOCLDY    69  64  83 E3        29.91S
EDINBURG       MOCLDY    91  75  59 SE9       29.90R
$$


USA.gov is the U.S. government's official web portal to all federal, state and local government web resources and services.